World > North America > United States > North Carolina

Wilders Grove, North Carolina Regional Weather

Lat: 35.80N, Lon: 78.56W
Wx Zone: NCZ041
Warning NWS WEATHER ALERT - (More Info. Click Here) Warning
Feedback

Wilders Grove, NC Regional Weather

Expires:201910171600;;848234
ASUS42 KRAH 171510
RWRRAH
NORTH CAROLINA WEATHER ROUNDUP
NATIONAL WEATHER SERVICE RALEIGH NC
1100 AM EDT THU OCT 17 2019

NOTE: "FAIR" INDICATES FEW OR NO CLOUDS BELOW 12,000 FEET WITH NO
SIGNIFICANT WEATHER AND/OR OBSTRUCTIONS TO VISIBILITY.


NCZ021-022-025-041-071-084-088-171600-
CENTRAL NORTH CAROLINA
  
CITY           SKY/WX    TMP DP  RH WIND       PRES   REMARKS
CHARLOTTE      FAIR      57  34  41 N8        29.96R                  
GREENSBORO     FAIR      55  36  48 NW16G24   29.89R                  
WINSTON-SALEM  FAIR      55  33  43 NW12G22   29.91R                  
RALEIGH-DURHAM FAIR      56  37  49 W14G22    29.88R                  
FORT BRAGG     FAIR      59  36  42 NW21G26   29.89F                  
FAYETTEVILLE   FAIR      59  37  44 W16       29.91S                  
BURLINGTON     FAIR      59  35  40 NW13G22   29.89R                  
ROXBORO        FAIR      54  34  47 W12G17    29.89R                  
HENDERSON      FAIR      54  33  44 W9G23     29.85R                  
LOUISBURG      FAIR      55  37  50 W10G17    29.88S                  
LAURINBURG     FAIR      59  37  44 NW14G20   29.94S                  
$$
 

SKY/WX - Weather  TMP - Temperature  DP - Dew Point  RH - Relative Humidity
WIND - Wind Direction/Speed PRES - Barometric Pressure VSB - Visibility
WCI - Wind Chill Index E13G22 Wind - East Wind 13 mph/Gusts of 22 mph